Погода в Луцке

Украина / Волынская область     50°44′50″N   25°19′31″E
темп.,
°C
ветер,
м/с
пор.,
м/с
влажн.,
%
обл.,
%
осадки,
мм/ч
давл.,
гПа
погр.,
м
14 апреля, ср
ср1400:00+6ссз5785100 0.0 1017350
03:00+5ссз4690100 0.0 1016356
06:00+5с4689100 0.0 1014361
09:00+6с3386100 0.0 1014339
12:00+7ссз3383100 0.0 1013463
15:00+7сз4486100 0.1 1013467
18:00+5сз4691100 0.6 1013365
21:00+4зсз4593100 1.2 1014317
15 апреля, чт
чт1500:00+3з3393100 0.0 1015300
03:00+2з3497100 0.0 1015256
06:00+2зюз3497100 0.0 1015305
09:00+2з3396100 0.1 1016318
12:00+2з3496100 0.6 1017331
15:00+3зсз4695100 1.4 1017334
18:00+3зсз4797100 0.0 1017341
21:00+2з5997100 0.0 1017283
16 апреля, пт
пт1600:00+2зсз61197100 0.7 1016354
03:00+2з61197100 3.6 1014306
06:00+2з61197100 4.1 1013360
09:00+4зсз51098100 5.9 1012420
12:00+5сз5998100 1.3 1013455
15:00+6сз5998100 3.0 1014441
18:00+6зсз5997100 0.9 1014490
21:00+5зсз61197100 1.0 1015383
17 апреля, сб
сб1700:00+4зсз51097100 0.8 1016368
03:00+4з5898100 1.2 1016245
06:00+5сз129995 0.3 101784
09:00+5з2296100 0.1 1018185
12:00+12всв455928 0.3 10181418
15:00+12всв556063 0.6 10181103
18:00+11в446029 0.2 10181173
21:00+7юв249157 0.5 101998
18 апреля, вс
вс1800:00+6юз229278 0.1 1020131
03:00+5ююв2493100 0.1 1020206
06:00+5ююв2592100 0.0 1020234
09:00+8юв358087 0.0 1021356
12:00+10юв576872 0.3 10201085
15:00+11вюв566199 0.4 10211162
18:00+11юв6867100 0.6 10201285
21:00+9в4879100 1.0 1020410